Regional Weather Roundup
Issued by NWS Upton, NY

Current Version | Previous Version | Text Only | Print | Product List | Glossary On
Versions: 1 2 3 4 5 6 7 8 9 10 11 12 13 14 15 16 17 18 19 20 21 22 23 24 25 26 27 28 29 30 31 32 33 34 35 36 37 38 39 40 41 42 43 44 45 46 47 48 49 50
000
ASUS41 KOKX 290304
RWROKX

REGIONAL WEATHER ROUNDUP
NATIONAL WEATHER SERVICE NEW YORK NY
1100 PM EDT TUE JUN 28 2016

NOTE: "FAIR" INDICATES FEW OR NO CLOUDS BELOW 12,000 FEET WITH NO
SIGNIFICANT WEATHER AND/OR OBSTRUCTIONS TO VISIBILITY.

NYZ071-072-176-178-NJZ106-104-290400-
NEW YORK CITY METRO AREA


CITY           SKY/WX    TMP DP  RH WIND       PRES   REMARKS
CENTRAL PARK   MOCLDY    71  69  93 W3        29.91F FOG
LAGUARDIA APRT LGT RAIN  71  70  96 VRB6      29.87F FOG
KENNEDY INTL   FOG       72  69  90 S9        29.89F VSB 1/4
NEWARK/LIBERTY LGT RAIN  70  68  93 W7        29.88S
BRNX BOT. GARD   N/A     70  68  94 SE3       29.90F
TETERBORO      RAIN      68  65  90 N6        29.87S
$$

NYZ177-179-078>081-290400-
LONG ISLAND NEW YORK

CITY           SKY/WX    TMP DP  RH WIND       PRES   REMARKS
FARMINGDALE    FOG       70  70 100 S10       29.89F VSB 3/4
ISLIP          CLOUDY    70  69  97 S12       29.89F
SHIRLEY        CLOUDY    70  68  93 S10       29.91F
RIVERHEAD      NOT AVBL
WESTHAMPTON    CLOUDY    69  67  93 S8        29.92F
SOUTHAMPTON      N/A     68  68 100 S9        29.88F
BRIDGEHAMPTON  NOT AVBL
EAST HAMPTON   RAIN      68  66  94 S6        29.91F
MONTAUK POINT    N/A     68  67  96 VRB6      29.94S
$$

NYZ052-065-067-290400-
HUDSON VALLEY

CITY           SKY/WX    TMP DP  RH WIND       PRES   REMARKS
WHITE PLAINS   TSTM      70  69  97 SE5       29.88F VSB 3/4
NEWBURGH       NOT AVBL
MONTGOMERY     LGT RAIN  67  65  93 SE5       29.89S
POUGHKEEPSIE   LGT RAIN  68  65  90 SE3       29.89F FOG
ALBANY         LGT RAIN  66  64  93 SE3       29.89F
$$

NJZ001-105-106-008-010-013-015-019>022-104-290400-
NEW JERSEY

CITY           SKY/WX    TMP DP  RH WIND       PRES   REMARKS
NEWARK/LIBERTY LGT RAIN  70  68  93 W7        29.88S
TETERBORO      RAIN      68  65  90 N6        29.87S
CALDWELL       CLOUDY    68  65  90 S3        29.89S
MORRISTOWN     CLOUDY    68  64  88 CALM      29.89S
SOMERVILLE     CLOUDY    68  65  90 VRB3      29.86F
SUSSEX         MOCLDY    67  65  93 CALM      29.89F
ANDOVER          N/A     66  65  96 CALM      29.90S
TRENTON        HVY RAIN  69  66  90 SE8       29.89R FOG
MILLVILLE      CLOUDY    72  69  90 CALM      29.89R
ATLANTIC CITY  MOCLDY    70  67  90 S3        29.89S
WRIGHTSTOWN    CLOUDY    71  70  96 S3        29.87R
TOMS RIVER     MOCLDY    70  68  93 S5        29.90R
BELMAR         CLOUDY    71  69  93 SW7       29.90S
$$

PAZ047>061-062-071-290400-
EASTERN PENNSYLVANIA

CITY           SKY/WX    TMP DP  RH WIND       PRES   REMARKS
PHILADELPHIA   MOCLDY    75  70  84 S8        29.88R
ALLENTOWN      MOCLDY    69  65  86 E5        29.90R
SCRANTON       LGT RAIN  68  64  87 N3        29.92R
$$

CTZ002-004>006-009-010-012-RIZ004-006-007-MAZ004-011-015-290400-
SOUTHERN NEW ENGLAND
 IN CT

CITY           SKY/WX    TMP DP  RH WIND       PRES   REMARKS
BRADLEY INTL   CLOUDY    71  67  87 S6        29.89S
HARTFORD       LGT RAIN  73  68  84 S10       29.90F
DANBURY        CLOUDY    70  67  90 CALM      29.90F
WTRBRY/OXFORD    N/A     68  64  88 S8        29.92F VSB 3/4
BRIDGEPORT     CLOUDY    71  69  93 S6        29.89F FOG
MERIDEN        LGT RAIN  71  67  87 S6        29.90F FOG
NEW HAVEN      CLOUDY    70  68  93 S8        29.90F FOG
CHESTER        DRIZZLE   68  68 100 S7        29.92F
GROTON         CLOUDY    67  67 100 SE7       29.92F
WILLIMANTIC    CLOUDY    72  66  81 S6        29.92S

 IN RI

CITY           SKY/WX    TMP DP  RH WIND       PRES   REMARKS
PROVIDENCE     CLOUDY    71  66  84 S9        29.94R
BLOCK ISLAND   CLOUDY    68  67  96 S13       29.94F
WESTERLY       LGT RAIN  69  65  86 S6        29.94S FOG

 IN MA

CITY           SKY/WX    TMP DP  RH WIND       PRES   REMARKS
BOSTON         CLOUDY    71  65  81 S8        29.93S
WORCESTER      CLOUDY    67  64  90 S8        29.94F
WESTFIELD      CLOUDY    70  67  90 S6        29.89F
PROVINCETOWN   MOCLDY    69  67  93 S8        29.94F
NANTUCKET      FOG       64  64 100 SE5       29.95F VSB 1/4
$$

ANZ330-335-338-340-345-350-353-355-290400-
COASTAL MARINE OBSERVATIONS


STATION/POSITION TIME  SKY/WX   TEMP    WIND        PRES    VSBY  WAVE
                                AIR SEA DIR/SP/G                  HT/PER
                 (UTC)          (F)     (DEG/KT/KT) (MB)    (MI)  (FT/S)
NY HARB ENTRANCE 0150            69 68  190/ 12/ 14 1011.7          3/ 4
20S FIRE ISLAND  0150            70 69  190/ 14/ 16 1012.4          3/ 8
GREAT SOUTH BAY  0230            71 75  200/ 10/ 14   N/A
23 SSW MONTAUK P 0150            69 68  190/ 12/ 16 1013.9          3/ 8
15 E BARNEGAT LI 0222               70                N/A           4/ 4
HUDSON CANYON    0150            68 67              1013.0          3/ 8
KINGS POINT      0200               68              1011.9
EXECUTION ROCKS  NOT AVBL
CENTRAL LI SOUND 0215            70     170/ 10/ 12   N/A           1
EASTERN LI SOUND 0200            65 61  130/  2/  4   N/A
ROBBINS REEF     0200                               1011.2
$$


>>>>>>>>>>>>>>>>>>>>>>>>>>>> KEY <<<<<<<<<<<<<<<<<<<<<<<<<<<
>                                                          <
>     SKY/WX - SKY CONDITION/PRESENT WEATHER               <
>     TMP    - TEMPERATURE IN FAHRENHEIT                   <
>     DP     - DEWPOINT IN FAHRENHEIT                      <
>     RH     - RELATIVE HUMIDITY IN PERCENT                <
>     WIND   - DIRECTION AND SPEED IN MPH                  <
>     PRES   - MEAN SEA LEVEL PRESSURE IN INCHES OF HG     <
>     WCI    - WIND CHILL INDEX                            <
>     VSB    - VISIBILITY IN MILES                         <
>     HX     - HEAT INDEX                                  <
>     TC     - TEMPERATURE IN CELSIUS                      <
>     VRB    - VARIABLE WIND DIRECTION                     <
>                                                          <
>>>>>>>>>>>>>>>>>>>>>>>>>>>> KEY <<<<<<<<<<<<<<<<<<<<<<<<<<<





USA.gov is the U.S. government's official web portal to all federal, state and local government web resources and services.